Puerto Banus, Marbella

>

This is an optional block (switch it off / on) in the settings - file ($SITE['banners'] = false;)

You can display ads, any other important text or photo’s using text / html or PHP code.

You can place one or more at the top and or bottom and it can all be different for content / size .



Meteosat more information blitzortung!


Radar lluvias  rain snow radar


Visita nuestra red de sitios de meteo:

Documentation for the template used

MeteoibericaRed estaciones Meteorologicas

MeteoclimaticRed estaciones Meteorologicas



Sin Advertencias climatologicas .En este momento tenemos Nivel Verde.    No hay Alarmas

Pagina Historial Weather Underground texto

Diario Resumen January 3, 2017 Unidades:  Métrico    impérial   Tanto
« Anterior Dia
Siguiente Dia »
Diario Semana Mensual Anual Personalizada
  Maxima: Minima: Media:
Temperatura: -17.8 °C -12.3 °C -10.8 °C
Punto de rocío: -17.8 °C -13.8 °C -12.6 °C
Humedad: Humidity % 71 % 80 %
Velocidad del Viento: 0 km/h 0 km/h 18.3 km/h
Ráfagas de viento: 0 km/h - -
Viento:- - West
Pression baro: 0 hPa 34645.6 hPa -
Précipitaciones: 0 mm    
Historical Graphs
 
 
Datos de tabla para January 3, 2017
Tiempo Temperatura Punto de rocío Pression baro Viento Velocidad del Viento Ráfagas de viento Humedad Las precipitaciones Rate ( Hora )
-17.8 °C -17.8 °C 0 hPa Calm     Humidity % 0 mm
00:01 -11.6 °C -13.3 °C 34659.1 hPa North 26.9 km/h 26.9 km/h 81 % 0 mm
00:06 -11.6 °C -13.4 °C 34659.1 hPa NNE 32.8 km/h 32.8 km/h 81 % 0 mm
00:11 -11.6 °C -13.4 °C 34659.1 hPa North 29.8 km/h 29.8 km/h 81 % 0 mm
00:16 -11.6 °C -13.4 °C 34659.1 hPa North 32.8 km/h 32.8 km/h 81 % 0 mm
00:21 -11.6 °C -13.5 °C 34659.1 hPa North 29.8 km/h 29.8 km/h 80 % 0 mm
00:26 -11.7 °C -13.4 °C 34659.1 hPa North 29.8 km/h 29.8 km/h 81 % 0 mm
00:31 -11.7 °C -13.6 °C 34659.1 hPa North 29.8 km/h 29.8 km/h 80 % 0 mm
00:36 -11.7 °C -13.6 °C 34659.1 hPa North 29.8 km/h 29.8 km/h 80 % 0 mm
00:41 -11.7 °C -13.4 °C 34659.1 hPa North 23.8 km/h 23.8 km/h 81 % 0 mm
00:46 -11.8 °C -13.5 °C 34659.1 hPa NNE 20.9 km/h 20.9 km/h 81 % 0 mm
00:51 -11.8 °C -13.5 °C 34659.1 hPa North 29.8 km/h 29.8 km/h 81 % 0 mm
00:56 -11.8 °C -13.5 °C 34659.1 hPa North 29.8 km/h 29.8 km/h 81 % 0 mm
01:01 -11.8 °C -13.5 °C 34659.1 hPa North 26.9 km/h 26.9 km/h 81 % 0 mm
01:06 -11.8 °C -13.5 °C 34659.1 hPa North 23.8 km/h 23.8 km/h 81 % 0 mm
01:11 -11.8 °C -13.5 °C 34645.6 hPa North 29.8 km/h 29.8 km/h 81 % 0 mm
01:17 -11.8 °C -13.5 °C 34645.6 hPa North 29.8 km/h 29.8 km/h 81 % 0 mm
01:22 -11.8 °C -13.5 °C 34645.6 hPa North 29.8 km/h 29.8 km/h 81 % 0 mm
01:27 -11.8 °C -13.5 °C 34645.6 hPa North 29.8 km/h 29.8 km/h 81 % 0 mm
01:32 -11.8 °C -13.5 °C 34645.6 hPa NNE 26.9 km/h 26.9 km/h 81 % 0 mm
01:37 -11.8 °C -13.6 °C 34645.6 hPa NNW 29.8 km/h 29.8 km/h 81 % 0 mm
01:42 -11.8 °C -13.6 °C 34645.6 hPa NNW 29.8 km/h 29.8 km/h 81 % 0 mm
01:47 -11.8 °C -13.6 °C 34645.6 hPa North 29.8 km/h 29.8 km/h 81 % 0 mm
01:52 -11.8 °C -13.6 °C 34645.6 hPa North 29.8 km/h 29.8 km/h 81 % 0 mm
01:57 -11.8 °C -13.6 °C 34645.6 hPa NNE 26.9 km/h 26.9 km/h 81 % 0 mm
02:02 -11.8 °C -13.6 °C 34645.6 hPa North 23.8 km/h 23.8 km/h 81 % 0 mm
02:07 -11.8 °C -13.5 °C 34645.6 hPa NNE 17.9 km/h 17.9 km/h 81 % 0 mm
02:12 -11.8 °C -13.5 °C 34645.6 hPa NNW 26.9 km/h 26.9 km/h 81 % 0 mm
02:17 -11.7 °C -13.6 °C 34645.6 hPa NNW 23.8 km/h 23.8 km/h 80 % 0 mm
02:22 -11.7 °C -13.6 °C 34645.6 hPa North 26.9 km/h 26.9 km/h 80 % 0 mm
02:27 -11.8 °C -13.6 °C 34645.6 hPa North 26.9 km/h 26.9 km/h 80 % 0 mm
02:32 -11.8 °C -13.6 °C 34645.6 hPa NNW 20.9 km/h 20.9 km/h 80 % 0 mm
02:37 -11.8 °C -13.7 °C 34645.6 hPa NNW 26.9 km/h 26.9 km/h 80 % 0 mm
02:42 -11.8 °C -13.7 °C 34645.6 hPa NNE 31.1 km/h 31.1 km/h 80 % 0 mm
02:47 -11.9 °C -13.8 °C 34645.6 hPa North 23.8 km/h 23.8 km/h 80 % 0 mm
02:52 -12 °C -13.7 °C 34645.6 hPa North 23.8 km/h 23.8 km/h 81 % 0 mm
02:57 -12 °C -13.7 °C 34645.6 hPa NNW 23.8 km/h 23.8 km/h 81 % 0 mm
03:02 -12 °C -13.7 °C 34645.6 hPa North 29.8 km/h 29.8 km/h 81 % 0 mm
03:07 -12.1 °C -13.8 °C 34645.6 hPa North 29.8 km/h 29.8 km/h 81 % 0 mm
03:12 -12.1 °C -13.8 °C 34645.6 hPa NNW 29.8 km/h 29.8 km/h 81 % 0 mm
03:17 -12.1 °C -13.8 °C 34645.6 hPa North 26.9 km/h 26.9 km/h 81 % 0 mm
03:22 -12.1 °C -13.7 °C 34645.6 hPa North 23.8 km/h 23.8 km/h 82 % 0 mm
03:27 -12.1 °C -13.7 °C 34645.6 hPa North 26.9 km/h 26.9 km/h 82 % 0 mm
03:32 -12.1 °C -13.7 °C 34645.6 hPa NNW 25.9 km/h 25.9 km/h 82 % 0 mm
03:37 -12.1 °C -13.7 °C 34645.6 hPa North 23.8 km/h 23.8 km/h 82 % 0 mm
03:42 -12.1 °C -13.8 °C 34645.6 hPa North 23.8 km/h 23.8 km/h 82 % 0 mm
03:47 -12.1 °C -13.8 °C 34645.6 hPa North 26.9 km/h 26.9 km/h 82 % 0 mm
03:52 -12.2 °C -13.8 °C 34645.6 hPa North 23.8 km/h 23.8 km/h 82 % 0 mm
03:57 -12.2 °C -13.8 °C 34645.6 hPa North 26.9 km/h 26.9 km/h 82 % 0 mm
04:02 -12.2 °C -13.8 °C 34659.1 hPa North 20.9 km/h 20.9 km/h 82 % 0 mm
04:07 -12.2 °C -13.8 °C 34659.1 hPa NNW 20.9 km/h 20.9 km/h 82 % 0 mm
04:12 -12.2 °C -13.8 °C 34659.1 hPa NNW 20.9 km/h 20.9 km/h 82 % 0 mm
04:17 -12.2 °C -13.8 °C 34645.6 hPa NNW 26.9 km/h 26.9 km/h 82 % 0 mm
04:22 -12.2 °C -13.8 °C 34645.6 hPa North 20.9 km/h 20.9 km/h 82 % 0 mm
04:27 -12.2 °C -13.8 °C 34645.6 hPa North 29.8 km/h 29.8 km/h 83 % 0 mm
04:32 -12.2 °C -13.8 °C 34645.6 hPa North 26.9 km/h 26.9 km/h 83 % 0 mm
04:37 -12.3 °C -13.8 °C 34645.6 hPa North 26.9 km/h 26.9 km/h 83 % 0 mm
04:42 -12.3 °C -13.8 °C 34645.6 hPa North 20.9 km/h 20.9 km/h 83 % 0 mm
04:47 -12.3 °C -13.8 °C 34645.6 hPa North 23.8 km/h 23.8 km/h 83 % 0 mm
04:52 -12.3 °C -13.8 °C 34645.6 hPa NNW 26.9 km/h 26.9 km/h 83 % 0 mm
04:57 -12.3 °C -13.8 °C 34645.6 hPa NNW 23.8 km/h 23.8 km/h 83 % 0 mm
05:02 -12.3 °C -13.8 °C 34645.6 hPa North 29.8 km/h 29.8 km/h 83 % 0 mm
05:07 -12.3 °C -13.8 °C 34645.6 hPa North 23.8 km/h 23.8 km/h 83 % 0 mm
05:12 -12.3 °C -13.8 °C 34645.6 hPa North 23.8 km/h 23.8 km/h 83 % 0 mm
05:17 -12.3 °C -13.8 °C 34645.6 hPa NNW 26.9 km/h 26.9 km/h 83 % 0 mm
05:22 -12.3 °C -13.8 °C 34645.6 hPa NNW 17.9 km/h 17.9 km/h 83 % 0 mm
05:27 -12.2 °C -13.8 °C 34645.6 hPa NNW 23.8 km/h 23.8 km/h 83 % 0 mm
05:32 -12.2 °C -13.8 °C 34645.6 hPa North 20.9 km/h 20.9 km/h 83 % 0 mm
05:37 -12.2 °C -13.8 °C 34645.6 hPa North 20.9 km/h 20.9 km/h 83 % 0 mm
05:42 -12.2 °C -13.8 °C 34659.1 hPa North 23.8 km/h 23.8 km/h 83 % 0 mm
05:47 -12.3 °C -13.8 °C 34659.1 hPa North 23.8 km/h 23.8 km/h 83 % 0 mm
05:52 -12.3 °C -13.8 °C 34659.1 hPa North 23.8 km/h 23.8 km/h 83 % 0 mm
05:57 -12.3 °C -13.8 °C 34659.1 hPa NNW 23.8 km/h 23.8 km/h 83 % 0 mm
06:02 -12.3 °C -13.8 °C 34659.1 hPa North 26.9 km/h 26.9 km/h 83 % 0 mm
06:07 -12.3 °C -13.8 °C 34645.6 hPa North 20.9 km/h 20.9 km/h 83 % 0 mm
06:13 -12.2 °C -13.8 °C 34645.6 hPa North 23.8 km/h 23.8 km/h 83 % 0 mm
06:17 -12.2 °C -13.8 °C 34645.6 hPa North 26.9 km/h 26.9 km/h 83 % 0 mm
06:22 -12.2 °C -13.8 °C 34645.6 hPa North 23.8 km/h 23.8 km/h 83 % 0 mm
06:27 -12.3 °C -13.8 °C 34659.1 hPa North 20.9 km/h 20.9 km/h 83 % 0 mm
06:32 -12.2 °C -13.8 °C 34659.1 hPa North 20.9 km/h 20.9 km/h 83 % 0 mm
06:38 -12.2 °C -13.8 °C 34659.1 hPa North 23.3 km/h 23.3 km/h 83 % 0 mm
06:43 -12.2 °C -13.8 °C 34659.1 hPa NNW 20.9 km/h 20.9 km/h 83 % 0 mm
06:48 -12.2 °C -13.8 °C 34659.1 hPa North 23.8 km/h 23.8 km/h 83 % 0 mm
06:53 -12.2 °C -13.8 °C 34659.1 hPa NNW 23.8 km/h 23.8 km/h 83 % 0 mm
06:58 -12.2 °C -13.8 °C 34659.1 hPa North 17.9 km/h 17.9 km/h 83 % 0 mm
07:03 -12.2 °C -13.8 °C 34659.1 hPa NNW 26.9 km/h 26.9 km/h 83 % 0 mm
07:08 -12.3 °C -13.8 °C 34659.1 hPa North 20.9 km/h 20.9 km/h 83 % 0 mm
07:13 -12.3 °C -13.8 °C 34659.1 hPa North 23.8 km/h 23.8 km/h 83 % 0 mm
07:18 -12.3 °C -13.8 °C 34659.1 hPa North 26.9 km/h 26.9 km/h 83 % 0 mm
07:23 -12.2 °C -13.8 °C 34659.1 hPa North 20.9 km/h 20.9 km/h 83 % 0 mm
07:28 -12.2 °C -13.8 °C 34669.3 hPa NNW 20.9 km/h 20.9 km/h 83 % 0 mm
07:33 -12.2 °C -13.8 °C 34669.3 hPa North 29.8 km/h 29.8 km/h 83 % 0 mm
07:38 -12.2 °C -13.7 °C 34669.3 hPa North 23.8 km/h 23.8 km/h 84 % 0 mm
07:43 -12.2 °C -13.7 °C 34669.3 hPa North 25.9 km/h 25.9 km/h 84 % 0 mm
07:48 -12.3 °C -13.7 °C 34669.3 hPa North 20.9 km/h 20.9 km/h 84 % 0 mm
07:53 -12.3 °C -13.7 °C 34669.3 hPa North 20.9 km/h 20.9 km/h 84 % 0 mm
07:58 -12.2 °C -13.7 °C 34669.3 hPa North 25.9 km/h 25.9 km/h 84 % 0 mm
08:03 -12.2 °C -13.7 °C 34682.8 hPa NNW 26.9 km/h 26.9 km/h 84 % 0 mm
08:08 -12.2 °C -13.7 °C 34682.8 hPa North 20.9 km/h 20.9 km/h 84 % 0 mm
08:13 -12.2 °C -13.7 °C 34682.8 hPa North 23.8 km/h 23.8 km/h 84 % 0 mm
08:18 -12.3 °C -13.7 °C 34682.8 hPa NNW 23.8 km/h 23.8 km/h 84 % 0 mm
08:23 -12.3 °C -13.7 °C 34682.8 hPa NNW 26.9 km/h 26.9 km/h 84 % 0 mm
08:28 -12.3 °C -13.7 °C 34682.8 hPa North 26.9 km/h 26.9 km/h 84 % 0 mm
08:33 -12.3 °C -13.7 °C 34682.8 hPa NNW 26.9 km/h 26.9 km/h 84 % 0 mm
08:38 -12.3 °C -13.7 °C 34682.8 hPa North 26.9 km/h 26.9 km/h 84 % 0 mm
08:43 -12.2 °C -13.7 °C 34682.8 hPa NNW 23.8 km/h 23.8 km/h 84 % 0 mm
08:48 -12.2 °C -13.6 °C 34682.8 hPa NNW 23.8 km/h 23.8 km/h 84 % 0 mm
08:53 -12.2 °C -13.6 °C 34682.8 hPa North 26.9 km/h 26.9 km/h 84 % 0 mm
08:58 -12.2 °C -13.6 °C 34682.8 hPa North 23.8 km/h 23.8 km/h 84 % 0 mm
09:03 -12.2 °C -13.6 °C 34693 hPa North 26.9 km/h 26.9 km/h 84 % 0 mm
09:08 -12.1 °C -13.6 °C 34693 hPa North 26.9 km/h 26.9 km/h 84 % 0 mm
09:13 -12.1 °C -13.6 °C 34693 hPa NNW 26.9 km/h 26.9 km/h 84 % 0 mm
09:18 -12.1 °C -13.5 °C 34693 hPa North 20.9 km/h 20.9 km/h 84 % 0 mm
09:23 -12.1 °C -13.5 °C 34693 hPa NNW 20.8 km/h 20.8 km/h 84 % 0 mm
09:28 -12 °C -13.4 °C 34693 hPa North 23.8 km/h 23.8 km/h 84 % 0 mm
09:33 -11.9 °C -13.4 °C 34693 hPa NNW 20.9 km/h 20.9 km/h 83 % 0 mm
09:38 -11.9 °C -13.4 °C 34703.1 hPa North 18.2 km/h 18.2 km/h 83 % 0 mm
09:43 -11.8 °C -13.4 °C 34703.1 hPa NNW 20.9 km/h 20.9 km/h 83 % 0 mm
09:48 -11.8 °C -13.3 °C 34703.1 hPa North 20.9 km/h 20.9 km/h 83 % 0 mm
09:53 -11.8 °C -13.3 °C 34703.1 hPa North 20.9 km/h 20.9 km/h 83 % 0 mm
09:58 -11.7 °C -13.2 °C 34716.7 hPa North 20.9 km/h 20.9 km/h 83 % 0 mm
10:03 -11.6 °C -13.2 °C 34716.7 hPa North 15 km/h 15 km/h 83 % 0 mm
10:08 -11.6 °C -13.1 °C 34716.7 hPa North 23.8 km/h 23.8 km/h 83 % 0 mm
10:13 -11.5 °C -13.1 °C 34716.7 hPa North 15.6 km/h 15.6 km/h 82 % 0 mm
10:18 -11.4 °C -13.1 °C 34716.7 hPa NNW 18.2 km/h 18.2 km/h 82 % 0 mm
10:23 -11.4 °C -13 °C 34716.7 hPa North 20.9 km/h 20.9 km/h 82 % 0 mm
10:28 -11.3 °C -12.9 °C 34726.8 hPa NNW 15 km/h 15 km/h 82 % 0 mm
10:33 -11.2 °C -12.9 °C 34726.8 hPa North 20.9 km/h 20.9 km/h 82 % 0 mm
10:38 -11.2 °C -12.9 °C 34726.8 hPa North 15 km/h 15 km/h 81 % 0 mm
10:43 -11 °C -12.8 °C 34726.8 hPa North 12.9 km/h 12.9 km/h 81 % 0 mm
10:48 -10.9 °C -12.7 °C 34740.4 hPa NNW 11.9 km/h 11.9 km/h 81 % 0 mm
10:53 -10.8 °C -12.6 °C 34740.4 hPa North 11.9 km/h 11.9 km/h 81 % 0 mm
10:58 -10.7 °C -12.4 °C 34740.4 hPa North 11.9 km/h 11.9 km/h 81 % 0 mm
11:03 -10.5 °C -12.4 °C 34740.4 hPa North 9 km/h 9 km/h 80 % 0 mm
11:08 -10.4 °C -12.3 °C 34740.4 hPa North 9 km/h 9 km/h 80 % 0 mm
11:13 -10.2 °C -12.2 °C 34740.4 hPa North 6 km/h 6 km/h 79 % 0 mm
11:18 -10.1 °C -12.1 °C 34740.4 hPa North 3.1 km/h   79 % 0 mm
11:23 -9.8 °C -11.8 °C 34740.4 hPa Calm     79 % 0 mm
11:28 -9.6 °C -11.7 °C 34740.4 hPa Calm     78 % 0 mm
11:33 -9.5 °C -11.7 °C 34740.4 hPa Calm     77 % 0 mm
11:38 -9.4 °C -11.7 °C 34740.4 hPa WSW 9 km/h 9 km/h 76 % 0 mm
11:43 -9.3 °C -11.7 °C 34740.4 hPa WSW 9 km/h 9 km/h 76 % 0 mm
11:48 -9.3 °C -11.6 °C 34740.4 hPa WSW 9 km/h 9 km/h 76 % 0 mm
11:53 -9.3 °C -11.8 °C 34740.4 hPa SW 11.9 km/h 11.9 km/h 75 % 0 mm
11:59 -9.3 °C -11.8 °C 34740.4 hPa WSW 11.9 km/h 11.9 km/h 75 % 0 mm
12:04 -9.4 °C -11.8 °C 34740.4 hPa WSW 11.9 km/h 11.9 km/h 75 % 0 mm
12:09 -9.4 °C -11.8 °C 34740.4 hPa WSW 15 km/h 15 km/h 76 % 0 mm
12:14 -9.4 °C -11.8 °C 34740.4 hPa WSW 12.9 km/h 12.9 km/h 76 % 0 mm
12:19 -9.4 °C -11.6 °C 34740.4 hPa WSW 12.9 km/h 12.9 km/h 77 % 0 mm
12:24 -9.4 °C -11.7 °C 34740.4 hPa SW 18.2 km/h 18.2 km/h 77 % 0 mm
12:29 -9.5 °C -11.7 °C 34726.8 hPa WSW 15 km/h 15 km/h 77 % 0 mm
12:34 -9.4 °C -11.6 °C 34726.8 hPa WSW 12.9 km/h 12.9 km/h 78 % 0 mm
12:39 -9.5 °C -11.7 °C 34726.8 hPa WSW 15 km/h 15 km/h 77 % 0 mm
12:44 -9.5 °C -11.7 °C 34726.8 hPa WSW 15 km/h 15 km/h 77 % 0 mm
12:49 -9.5 °C -11.7 °C 34726.8 hPa WSW 17.9 km/h 17.9 km/h 77 % 0 mm
12:54 -9.4 °C -11.7 °C 34726.8 hPa WSW 15 km/h 15 km/h 77 % 0 mm
12:59 -9.4 °C -11.7 °C 34716.7 hPa WSW 11.9 km/h 11.9 km/h 77 % 0 mm
13:04 -9.4 °C -11.7 °C 34716.7 hPa WSW 15 km/h 15 km/h 77 % 0 mm
13:09 -9.4 °C -11.7 °C 34716.7 hPa SW 15.6 km/h 15.6 km/h 77 % 0 mm
13:14 -9.5 °C -11.6 °C 34716.7 hPa WSW 20.9 km/h 20.9 km/h 78 % 0 mm
13:19 -9.5 °C -11.6 °C 34703.1 hPa WSW 17.9 km/h 17.9 km/h 78 % 0 mm
13:24 -9.5 °C -11.6 °C 34703.1 hPa WSW 17.9 km/h 17.9 km/h 78 % 0 mm
13:29 -9.5 °C -11.5 °C 34703.1 hPa WSW 20.9 km/h 20.9 km/h 79 % 0 mm
13:34 -9.4 °C -11.4 °C 34703.1 hPa WSW 20.9 km/h 20.9 km/h 79 % 0 mm
13:39 -9.4 °C -11.4 °C 34703.1 hPa WSW 23.8 km/h 23.8 km/h 79 % 0 mm
13:44 -9.4 °C -11.4 °C 34703.1 hPa WSW 17.9 km/h 17.9 km/h 79 % 0 mm
13:49 -9.4 °C -11.4 °C 34703.1 hPa West 20.9 km/h 20.9 km/h 79 % 0 mm
13:54 -9.4 °C -11.4 °C 34703.1 hPa WSW 23.3 km/h 23.3 km/h 79 % 0 mm
13:59 -9.4 °C -11.4 °C 34703.1 hPa WSW 20.9 km/h 20.9 km/h 79 % 0 mm
14:04 -9.4 °C -11.4 °C 34693 hPa WSW 17.9 km/h 17.9 km/h 79 % 0 mm
14:09 -9.3 °C -11.3 °C 34693 hPa WSW 20.9 km/h 20.9 km/h 79 % 0 mm
14:14 -9.3 °C -11.3 °C 34693 hPa West 20.9 km/h 20.9 km/h 79 % 0 mm
14:19 -9.3 °C -11.3 °C 34693 hPa WSW 20.9 km/h 20.9 km/h 79 % 0 mm
14:24 -9.3 °C -11.3 °C 34693 hPa WSW 17.9 km/h 17.9 km/h 79 % 0 mm
14:29 -9.3 °C -11.3 °C 34693 hPa WSW 17.9 km/h 17.9 km/h 79 % 0 mm
14:34 -9.3 °C -11.3 °C 34693 hPa WSW 26.9 km/h 26.9 km/h 79 % 0 mm
14:39 -9.3 °C -11.3 °C 34682.8 hPa WSW 20.9 km/h 20.9 km/h 79 % 0 mm
14:44 -9.2 °C -11.2 °C 34682.8 hPa WSW 17.9 km/h 17.9 km/h 80 % 0 mm
14:49 -9.2 °C -11.2 °C 34682.8 hPa WSW 20.9 km/h 20.9 km/h 79 % 0 mm
14:54 -9.2 °C -11.2 °C 34682.8 hPa WSW 17.9 km/h 17.9 km/h 79 % 0 mm
14:59 -9.2 °C -11.2 °C 34682.8 hPa SW 15.6 km/h 15.6 km/h 79 % 0 mm
15:04 -9.2 °C -11.2 °C 34682.8 hPa SW 17.9 km/h 17.9 km/h 79 % 0 mm
15:09 -9.2 °C -11.1 °C 34682.8 hPa WSW 15 km/h 15 km/h 80 % 0 mm
15:14 -9.2 °C -11.1 °C 34682.8 hPa WSW 20.9 km/h 20.9 km/h 80 % 0 mm
15:19 -9.2 °C -11.1 °C 34682.8 hPa WSW 17.9 km/h 17.9 km/h 80 % 0 mm
15:24 -9.2 °C -11.1 °C 34682.8 hPa WSW 17.9 km/h 17.9 km/h 80 % 0 mm
15:29 -9.1 °C -11.1 °C 34693 hPa WSW 18.2 km/h 18.2 km/h 80 % 0 mm
15:34 -9.1 °C -11.1 °C 34682.8 hPa WSW 20.9 km/h 20.9 km/h 80 % 0 mm
15:39 -9.1 °C -11.1 °C 34682.8 hPa WSW 15 km/h 15 km/h 80 % 0 mm
15:44 -9.1 °C -11.1 °C 34682.8 hPa WSW 11.9 km/h 11.9 km/h 80 % 0 mm
15:49 -9.1 °C -11.1 °C 34682.8 hPa WSW 11.9 km/h 11.9 km/h 80 % 0 mm
15:54 -9.1 °C -11 °C 34682.8 hPa WSW 15 km/h 15 km/h 80 % 0 mm
15:59 -9.1 °C -11.1 °C 34682.8 hPa WSW 15.6 km/h 15.6 km/h 79 % 0 mm
16:04 -9.1 °C -11.1 °C 34682.8 hPa WSW 10.3 km/h 10.3 km/h 79 % 0 mm
16:09 -9.1 °C -11.1 °C 34693 hPa WSW 15 km/h 15 km/h 79 % 0 mm
16:14 -9 °C -11 °C 34693 hPa WSW 12.9 km/h 12.9 km/h 79 % 0 mm
16:19 -9 °C -11 °C 34693 hPa WSW 11.9 km/h 11.9 km/h 79 % 0 mm
16:24 -9 °C -11 °C 34693 hPa WSW 11.9 km/h 11.9 km/h 79 % 0 mm
16:29 -9 °C -11 °C 34693 hPa WSW 12.9 km/h 12.9 km/h 79 % 0 mm
16:34 -9 °C -11 °C 34693 hPa WSW 9 km/h 9 km/h 79 % 0 mm
16:39 -8.9 °C -11.1 °C 34693 hPa WSW 9 km/h 9 km/h 78 % 0 mm
16:44 -8.9 °C -11 °C 34693 hPa WSW 10.3 km/h 10.3 km/h 79 % 0 mm
16:49 -8.9 °C -10.9 °C 34693 hPa WSW 9 km/h 9 km/h 79 % 0 mm
16:54 -8.9 °C -10.9 °C 34693 hPa North 10.3 km/h 10.3 km/h 79 % 0 mm
16:59 -8.9 °C -10.9 °C 34693 hPa WSW 9 km/h 9 km/h 79 % 0 mm
17:04 -8.9 °C -10.8 °C 34693 hPa WSW 11.9 km/h 11.9 km/h 80 % 0 mm
17:09 -8.9 °C -10.8 °C 34693 hPa WSW 9 km/h 9 km/h 80 % 0 mm
17:14 -8.9 °C -10.9 °C 34693 hPa WSW 10.3 km/h 10.3 km/h 80 % 0 mm
17:19 -9 °C -10.9 °C 34693 hPa WSW 11.9 km/h 11.9 km/h 80 % 0 mm
17:24 -9 °C -10.9 °C 34693 hPa WSW 7.7 km/h 7.7 km/h 80 % 0 mm
17:29 -9.1 °C -10.9 °C 34693 hPa WSW 9 km/h 9 km/h 80 % 0 mm
17:34 -9.1 °C -10.9 °C 34693 hPa WSW 2.6 km/h 2.6 km/h 81 % 0 mm
17:39 -9.1 °C -10.9 °C 34693 hPa WSW 9 km/h 9 km/h 81 % 0 mm
17:44 -9.1 °C -10.9 °C 34693 hPa WSW 9 km/h 9 km/h 81 % 0 mm
17:49 -9.1 °C -10.9 °C 34693 hPa WSW 9 km/h 9 km/h 81 % 0 mm
17:54 -9.1 °C -10.9 °C 34703.1 hPa WSW 6 km/h 6 km/h 81 % 0 mm
18:00 -9.2 °C -10.9 °C 34703.1 hPa WSW 9 km/h 9 km/h 82 % 0 mm
18:05 -9.2 °C -10.9 °C 34703.1 hPa WSW 9 km/h 9 km/h 82 % 0 mm
18:10 -9.2 °C -10.9 °C 34703.1 hPa WSW 9 km/h 9 km/h 82 % 0 mm
18:15 -9.2 °C -10.9 °C 34703.1 hPa WSW 6 km/h 6 km/h 82 % 0 mm
18:20 -9.3 °C -10.9 °C 34703.1 hPa Calm     82 % 0 mm
18:25 -9.3 °C -10.9 °C 34703.1 hPa Calm     83 % 0 mm
18:30 -9.3 °C -10.9 °C 34703.1 hPa Calm     83 % 0 mm
18:35 -9.3 °C -11 °C 34703.1 hPa Calm     82 % 0 mm
18:40 -9.4 °C -11.1 °C 34703.1 hPa WSW 7.7 km/h 7.7 km/h 82 % 0 mm
18:45 -9.6 °C -11.2 °C 34703.1 hPa NW 9 km/h 9 km/h 83 % 0 mm
18:50 -9.7 °C -11.3 °C 34703.1 hPa NW 5.1 km/h 10.3 km/h 83 % 0 mm
18:55 -9.8 °C -11.2 °C 34703.1 hPa Calm   7.7 km/h 84 % 0 mm
19:00 -9.8 °C -11.3 °C 34703.1 hPa Calm     84 % 0 mm
19:05 -9.8 °C -11.2 °C 34703.1 hPa Calm     85 % 0 mm
19:10 -9.8 °C -11.2 °C 34703.1 hPa NNW 10.3 km/h 11.6 km/h 85 % 0 mm
19:15 -9.9 °C -11.3 °C 34703.1 hPa NNW 5.1 km/h 12.9 km/h 85 % 0 mm
19:20 -9.9 °C -11.3 °C 34716.7 hPa North 11.9 km/h 11.9 km/h 85 % 0 mm
19:25 -10 °C -11.4 °C 34716.7 hPa North 7.7 km/h 12.9 km/h 85 % 0 mm
19:30 -10 °C -11.3 °C 34716.7 hPa NNW 9 km/h   86 % 0 mm
19:35 -10 °C -11.3 °C 34716.7 hPa Calm     86 % 0 mm
19:40 -10 °C -11.3 °C 34716.7 hPa Calm     86 % 0 mm
19:45 -10.1 °C -11.4 °C 34716.7 hPa North 9 km/h 9 km/h 85 % 0 mm
19:50 -10.1 °C -11.5 °C 34716.7 hPa North 9 km/h 9 km/h 85 % 0 mm
19:55 -10.1 °C -11.5 °C 34716.7 hPa North 11.9 km/h 11.9 km/h 85 % 0 mm
20:00 -10.2 °C -11.6 °C 34716.7 hPa North 7.7 km/h 12.9 km/h 85 % 0 mm
20:05 -10.2 °C -11.6 °C 34726.8 hPa Calm     85 % 0 mm
20:10 -10.2 °C -11.6 °C 34726.8 hPa Calm     85 % 0 mm
20:15 -10.2 °C -11.6 °C 34726.8 hPa NNW 11.9 km/h 11.9 km/h 85 % 0 mm
20:20 -10.2 °C -11.7 °C 34726.8 hPa Calm   10.3 km/h 84 % 0 mm
20:25 -10.2 °C -11.7 °C 34726.8 hPa NNW 12.9 km/h 12.9 km/h 84 % 0 mm
20:30 -10.3 °C -11.9 °C 34726.8 hPa NNW 12.9 km/h 18.2 km/h 83 % 0 mm
20:35 -10.3 °C -11.9 °C 34726.8 hPa NNW 7.7 km/h 18.2 km/h 83 % 0 mm
20:40 -10.3 °C -12 °C 34726.8 hPa North 17.9 km/h 17.9 km/h 82 % 0 mm
20:45 -10.3 °C -12.1 °C 34726.8 hPa North 12.9 km/h 20.8 km/h 81 % 0 mm
20:50 -10.3 °C -12.1 °C 34740.4 hPa NNW 17.9 km/h 17.9 km/h 81 % 0 mm
20:55 -10.3 °C -12.2 °C 34740.4 hPa NNW 12.9 km/h 15.6 km/h 80 % 0 mm
21:00 -10.3 °C -12.2 °C 34740.4 hPa NNW 11.9 km/h 11.9 km/h 80 % 0 mm
21:05 -10.3 °C -12.3 °C 34740.4 hPa North 17.9 km/h 17.9 km/h 79 % 0 mm
21:10 -10.3 °C -12.4 °C 34740.4 hPa North 17.9 km/h 17.9 km/h 78 % 0 mm
21:15 -10.3 °C -12.4 °C 34740.4 hPa North 12.9 km/h 15.6 km/h 78 % 0 mm
21:16 -10.3 °C -12.5 °C 34740.4 hPa North 15 km/h 15 km/h 77 % 0 mm
21:21 -10.3 °C -12.6 °C 34740.4 hPa North 17.9 km/h 17.9 km/h 77 % 0 mm
21:26 -10.4 °C -12.6 °C 34740.4 hPa NNW 15 km/h 15 km/h 77 % 0 mm
21:31 -10.4 °C -12.6 °C 34740.4 hPa North 11.9 km/h 11.9 km/h 77 % 0 mm
21:36 -10.4 °C -12.6 °C 34740.4 hPa North 15.6 km/h 15.6 km/h 77 % 0 mm
21:41 -10.4 °C -12.7 °C 34740.4 hPa North 15 km/h 15 km/h 77 % 0 mm
21:46 -10.5 °C -12.7 °C 34740.4 hPa North 15 km/h 15 km/h 77 % 0 mm
21:51 -10.6 °C -12.7 °C 34740.4 hPa North 18.2 km/h 18.2 km/h 77 % 0 mm
21:56 -10.6 °C -12.7 °C 34740.4 hPa North 17.9 km/h 17.9 km/h 77 % 0 mm
22:01 -10.6 °C -12.9 °C 34740.4 hPa North 18.2 km/h 18.2 km/h 76 % 0 mm
22:06 -10.7 °C -12.8 °C 34740.4 hPa North 20.9 km/h 20.9 km/h 77 % 0 mm
22:11 -10.7 °C -12.9 °C 34740.4 hPa NNE 20.9 km/h 20.9 km/h 77 % 0 mm
22:16 -10.7 °C -13 °C 34740.4 hPa North 18.2 km/h 18.2 km/h 76 % 0 mm
22:21 -10.7 °C -13 °C 34740.4 hPa North 17.9 km/h 17.9 km/h 76 % 0 mm
22:26 -10.7 °C -12.9 °C 34740.4 hPa NNW 20.9 km/h 20.9 km/h 76 % 0 mm
22:31 -10.7 °C -12.9 °C 34740.4 hPa North 23.8 km/h 23.8 km/h 76 % 0 mm
22:36 -10.6 °C -13 °C 34740.4 hPa NNW 20.9 km/h 20.9 km/h 75 % 0 mm
22:41 -10.6 °C -13.1 °C 34740.4 hPa North 23.3 km/h 23.3 km/h 74 % 0 mm
22:46 -10.6 °C -13.1 °C 34740.4 hPa North 20.9 km/h 20.9 km/h 74 % 0 mm
22:51 -10.6 °C -13.1 °C 34750.5 hPa North 17.9 km/h 17.9 km/h 74 % 0 mm
22:56 -10.6 °C -13.2 °C 34750.5 hPa North 23.8 km/h 23.8 km/h 73 % 0 mm
23:01 -10.6 °C -13.2 °C 34750.5 hPa North 23.8 km/h 23.8 km/h 73 % 0 mm
23:06 -10.5 °C -13.3 °C 34750.5 hPa NNW 23.8 km/h 23.8 km/h 72 % 0 mm
23:11 -10.5 °C -13.3 °C 34750.5 hPa North 20.9 km/h 20.9 km/h 72 % 0 mm
23:16 -10.5 °C -13.4 °C 34750.5 hPa North 23.8 km/h 23.8 km/h 71 % 0 mm
23:21 -10.5 °C -13.4 °C 34750.5 hPa North 17.9 km/h 17.9 km/h 71 % 0 mm
23:26 -10.6 °C -13.4 °C 34750.5 hPa North 20.9 km/h 20.9 km/h 71 % 0 mm
23:31 -10.6 °C -13.4 °C 34750.5 hPa North 23.8 km/h 23.8 km/h 71 % 0 mm
23:36 -10.6 °C -13.4 °C 34750.5 hPa North 17.9 km/h 17.9 km/h 71 % 0 mm
23:41 -10.7 °C -13.5 °C 34750.5 hPa North 23.8 km/h 23.8 km/h 71 % 0 mm
23:47 -10.6 °C -13.4 °C 34750.5 hPa North 23.8 km/h 23.8 km/h 71 % 0 mm
23:52 -10.7 °C -13.5 °C 34750.5 hPa North 20.9 km/h 20.9 km/h 71 % 0 mm
23:57 -10.6 °C -13.4 °C 34750.5 hPa North 20.9 km/h 20.9 km/h 71 % 0 mm
Puerto Banus, Marbella
Elogios de Weather Underground - 2 mb

Guión original por  Jim McMurry - jmcmurry@mwt.net Adaptado para la plantilla por  Wim van der Kuil - Leuven-Template.eu

Usted encontrará nuestra información del tiempo también en:

Weather Underground

Iberian Peninsula Weather Network